| time (UTC) | temp F | wind direction | speed MPH | gust MPH | rain 1hr in | rain 24hr in | rain mn in | humidity % | barometer mb |
| 20260902211655 | 54 | 260 | 15.0 | 0.0 | 0.00 | 0.00 | 0.00 | 76 | |
| 20260902201656 | 54 | 260 | 14.0 | 0.0 | 0.00 | 0.00 | 0.00 | 76 | |
| 20260902191856 | 54 | 230 | 12.0 | 0.0 | 0.00 | 0.00 | 0.00 | 76 | |
| 20260902181655 | 54 | 230 | 12.0 | 0.0 | 0.00 | 0.00 | 0.00 | 76 | |
| 20260902171855 | 55 | 240 | 9.0 | 0.0 | 0.00 | 0.00 | 0.00 | 71 | |
| 20260902162057 | 57 | 240 | 8.0 | 0.0 | 0.00 | 0.00 | 0.00 | 71 | |
| 20260902151654 | 55 | 260 | 8.0 | 0.0 | 0.00 | 0.00 | 0.00 | 71 | |
| 20260902141856 | 57 | 260 | 9.0 | 0.0 | 0.00 | 0.00 | 0.00 | 62 | |
| 20260902131855 | 59 | 260 | 10.0 | 18.0 | 0.00 | 0.00 | 0.00 | 67 | |
| 20260902121655 | 55 | 260 | 9.0 | 0.0 | 0.00 | 0.00 | 0.00 | 71 | |
| 20260902111855 | 55 | 270 | 7.0 | 0.0 | 0.00 | 0.00 | 0.00 | 66 | |
| 20260902101955 | 55 | 270 | 8.0 | 15.0 | 0.00 | 0.00 | 0.00 | 71 | |
| 20260902091655 | 55 | 250 | 9.0 | 0.0 | 0.00 | 0.00 | 0.00 | 66 | |
| 20260902081856 | 54 | 250 | 9.0 | 0.0 | 0.00 | 0.00 | 0.00 | 66 | |
| 20260902071755 | 52 | 260 | 12.0 | 0.0 | 0.00 | 0.00 | 0.00 | 71 | |
| 20260902061655 | 50 | 250 | 12.0 | 0.0 | 0.00 | 0.00 | 0.00 | 76 | |
| 20260902041955 | 50 | 260 | 12.0 | 0.0 | 0.00 | 0.00 | 0.00 | 76 | |
| 20260902031655 | 50 | 280 | 8.0 | 0.0 | 0.00 | 0.00 | 0.00 | 76 | |
| 20260902021856 | 50 | 280 | 10.0 | 0.0 | 0.00 | 0.00 | 0.00 | 76 | |
| 20260902011855 | 50 | 270 | 13.0 | 0.0 | 0.00 | 0.00 | 0.00 | 76 | |
| 20260902001655 | 52 | 270 | 14.0 | 0.0 | 0.00 | 0.00 | 0.00 | 71 | |
| 20260901231839 | 52 | 260 | 15.0 | 0.0 | 0.00 | 0.00 | 0.00 | 71 | |
| 20260901221955 | 52 | 270 | 13.0 | 0.0 | 0.00 | 0.00 | 0.00 | 71 |